Content
SEND FEEDBACK

Daily
Averages
Monthly
Summary
United States of America

POTTS JUNCTION, GUAM


Home > North America > United States > Guam
Elevation: 360 feet     Latitude: 13 33N     Longitude: 144 50E

WEATHER
 
SELECT A DAY
Number of Records: 209,285;   Date Range: 1/1/95 - 9/16/14
 
SHARE

PRINT THIS DATA

[ ← Previous Day ]
WEATHER ALMANAC - JANUARY 20, 2014
[ Next Day → ]
[ °C ]   °F
Weather ElementAverageHighLow
Temperature79.9 °F86 °F (1:54 pm)75.9 °F (1:54 am)
Dewpoint72.9 °F75.9 °F (11:54 am)70 °F (4:54 am)
Humidity79.6 %94 % (5:39 pm)63 % (1:54 pm)
Barometer29.84 in29.89 in (8:54 am)29.78 in (2:54 pm)
Wind Speed13.6 mph21.9 mph (8:54 am)
Wind Gust31.1 mph (5:24 pm)
Weather ElementAverage
Visibility9.1 mi
Wind DirectionENE (63.8 °)

Weather ElementTotal
Precipitation0.08 in
Cooling Degree Days16 (Base 65)
Growing Degree Days31 (Base 50)
Averaged from 29 records on January 20, 2014
WEATHER CONDITIONS BREAKOUT
WIND DIRECTION BREAKOUT
WEATHER BY HOUR - JANUARY 20, 2014
[ °C ]   °F
Local TimeTemperatureDewpointHumidityBarometerVisibilityWind DirectionWind SpeedGust SpeedPrecipitationEventsConditions
1:54 AM75.9 °F71.1 °F85 %29.86 in10.0 miNE (50°)6.9 mphClear
2:54 AM77.0 °F72.0 °F84 %29.84 in10.0 miENE (70°)8.1 mphClear
3:54 AM77.0 °F73.0 °F88 %29.83 in10.0 miENE (60°)9.2 mphPartly Cloudy
4:54 AM75.9 °F70.0 °F82 %29.84 in10.0 miENE (60°)6.9 mphClear
5:54 AM75.9 °F70.0 °F82 %29.85 in10.0 miNE (50°)8.1 mphClear
6:54 AM75.9 °F71.1 °F85 %29.86 in10.0 miNE (50°)6.9 mphClear
7:54 AM78.1 °F72.0 °F81 %29.88 in10.0 miNE (50°)11.5 mphPartly Cloudy
8:54 AM82.0 °F72.0 °F71 %29.89 in10.0 miNE (40°)21.9 mphScattered Clouds
9:54 AM82.0 °F73.0 °F74 %29.89 in10.0 miNE (50°)17.3 mph0.00 inRainLight Rain
10:54 AM82.0 °F73.0 °F74 %29.87 in9.0 miNE (50°)17.3 mph0.00 inMostly Cloudy
11:47 AM82.4 °F71.6 °F70 %29.87 in10.0 miEast (90°)20.7 mph27.6 mphMostly Cloudy
11:54 AM82.0 °F75.9 °F82 %29.85 in10.0 miEast (100°)11.5 mph27.6 mph0.00 inRainLight Rain
12:12 PM80.6 °F75.2 °F84 %29.86 in7.0 miEast (80°)13.8 mph0.00 inRainLight Rain
12:54 PM84.0 °F73.9 °F72 %29.82 in10.0 miENE (60°)19.6 mph25.3 mph0.02 inMostly Cloudy
1:54 PM86.0 °F72.0 °F63 %29.80 in10.0 miNE (50°)19.6 mph24.2 mphScattered Clouds
2:54 PM84.9 °F71.1 °F63 %29.78 in10.0 miNE (50°)19.6 mphMostly Cloudy
3:54 PM84.9 °F72.0 °F65 %29.78 in10.0 miENE (60°)18.4 mph24.2 mphScattered Clouds
4:34 PM84.2 °F71.6 °F66 %29.81 in10.0 miENE (60°)16.1 mphMostly Cloudy
4:46 PM84.2 °F71.6 °F66 %29.82 in10.0 miNE (50°)17.3 mphScattered Clouds
4:54 PM82.9 °F73.0 °F72 %29.80 in10.0 miENE (60°)16.1 mphScattered Clouds
5:24 PM77.0 °F73.4 °F89 %29.84 in3.0 miEast (90°)15.0 mph31.1 mph0.00 inRainHeavy Rain
5:39 PM77.0 °F75.2 °F94 %29.84 in3.0 miEast (80°)11.5 mph0.02 inRainLight Rain
5:46 PM77.0 °F73.4 °F89 %29.84 in7.0 miENE (70°)13.8 mph0.02 inRainLight Rain
5:54 PM77.0 °F73.9 °F90 %29.82 in6.0 miENE (70°)16.1 mph0.02 inRainLight Rain
6:54 PM78.1 °F75.0 °F90 %29.82 in10.0 miEast (80°)11.5 mph0.00 inPartly Cloudy
7:54 PM78.1 °F73.9 °F87 %29.84 in10.0 miEast (80°)11.5 mphClear
8:54 PM78.1 °F73.9 °F87 %29.86 in10.0 miENE (70°)9.2 mphPartly Cloudy
9:54 PM79.0 °F73.9 °F84 %29.86 in10.0 miENE (60°)10.4 mphScattered Clouds
10:54 PM78.1 °F75.0 °F90 %29.86 in10.0 miENE (60°)9.2 mphScattered Clouds
Hourly data recorded from PGUM, located miles away from Potts Junction, Guam







STORIES FROM OUR PARTNERS